Zurück zum Katalog

BREEZE-M DEB

AktivHEO
NORAD 34250·DEBRIS·🇷🇺 Russia

Gestartet Feb 28, 2006 von Baikonur Cosmodrome

Loading…

Nächste Überflüge (nächste 24 Stunden)

TLE

AktuellSource: Space-Track

Epoche: Sep 13, 2026, 21:49 UTC

1 34250U 06006BR  26256.90970369  .00001025  00000-0  17994-2 0  9990
2 34250  51.6944 114.0633 5025770  50.7291 344.2014  5.33256915 42163

Verfolge BREEZE-M DEB in Echtzeit mit AllMySat

Download on the App Store